| time (UTC) | temp C | wind direction | speed KPH | gust KPH | rain 1hr cm | rain 24hr cm | rain mn cm | humidity % | barometer mb |
| 20260507110016 | 11 | 34 | 3.2 | 11.3 | 0.00 | 0.00 | 0.00 | 72 | 1022.0 |
| 20260507105506 | 11 | 87 | 3.2 | 12.9 | 0.00 | 0.00 | 0.00 | 72 | 1022.1 |
| 20260507105006 | 11 | 26 | 4.8 | 12.9 | 0.00 | 0.00 | 0.00 | 72 | 1022.1 |
| 20260507104520 | 11 | 56 | 4.8 | 12.9 | 0.00 | 0.00 | 0.00 | 72 | 1022.1 |
| 20260507104011 | 11 | 95 | 1.6 | 11.3 | 0.00 | 0.00 | 0.00 | 73 | 1022.2 |
| 20260507103507 | 11 | 64 | 3.2 | 11.3 | 0.00 | 0.00 | 0.00 | 73 | 1022.2 |
| 20260507103026 | 11 | 98 | 4.8 | 11.3 | 0.00 | 0.00 | 0.00 | 73 | 1022.2 |
| 20260507102509 | 11 | 94 | 0.0 | 6.4 | 0.00 | 0.00 | 0.00 | 73 | 1022.2 |
| 20260507102007 | 11 | 77 | 1.6 | 8.0 | 0.00 | 0.00 | 0.00 | 73 | 1022.2 |
| 20260507101527 | 12 | 86 | 3.2 | 12.9 | 0.00 | 0.00 | 0.00 | 73 | 1022.3 |
| 20260507101012 | 12 | 104 | 1.6 | 12.9 | 0.00 | 0.00 | 0.00 | 73 | 1022.3 |
| 20260507100511 | 12 | 66 | 1.6 | 4.8 | 0.00 | 0.00 | 0.00 | 73 | 1022.3 |
| 20260507100038 | 12 | 58 | 0.0 | 4.8 | 0.00 | 0.00 | 0.00 | 74 | 1022.3 |
| 20260507095511 | 12 | 105 | 1.6 | 6.4 | 0.00 | 0.00 | 0.00 | 74 | 1022.4 |
| 20260507095009 | 12 | 89 | 1.6 | 8.0 | 0.00 | 0.00 | 0.00 | 73 | 1022.4 |
| 20260507094528 | 12 | 102 | 1.6 | 8.0 | 0.00 | 0.00 | 0.00 | 73 | 1022.4 |
| 20260507094008 | 12 | 86 | 3.2 | 8.0 | 0.00 | 0.00 | 0.00 | 73 | 1022.3 |
| 20260507093507 | 12 | 87 | 1.6 | 9.7 | 0.00 | 0.00 | 0.00 | 72 | 1022.4 |
| 20260507093027 | 12 | 101 | 3.2 | 9.7 | 0.00 | 0.00 | 0.00 | 72 | 1022.4 |
| 20260507092512 | 12 | 96 | 0.0 | 3.2 | 0.00 | 0.00 | 0.00 | 73 | 1022.5 |
| 20260507092008 | 12 | 70 | 0.0 | 4.8 | 0.00 | 0.00 | 0.00 | 72 | 1022.5 |
| 20260507091529 | 12 | 44 | 1.6 | 9.7 | 0.00 | 0.00 | 0.00 | 72 | 1022.5 |
| 20260507091010 | 12 | 72 | 3.2 | 9.7 | 0.00 | 0.00 | 0.00 | 72 | 1022.5 |
| 20260507090512 | 12 | 46 | 3.2 | 8.0 | 0.00 | 0.00 | 0.00 | 72 | 1022.6 |
| 20260507090024 | 12 | 69 | 4.8 | 8.0 | 0.00 | 0.00 | 0.00 | 72 | 1022.6 |
| 20260507085504 | 12 | 46 | 1.6 | 8.0 | 0.00 | 0.00 | 0.00 | 72 | 1022.5 |
| 20260507085005 | 12 | 57 | 1.6 | 6.4 | 0.00 | 0.00 | 0.00 | 72 | 1022.6 |
| 20260507084518 | 12 | 75 | 3.2 | 6.4 | 0.00 | 0.00 | 0.00 | 72 | 1022.6 |
| 20260507084004 | 12 | 23 | 1.6 | 11.3 | 0.00 | 0.00 | 0.00 | 73 | 1022.5 |
| 20260507083506 | 12 | 44 | 0.0 | 11.3 | 0.00 | 0.00 | 0.00 | 73 | 1022.5 |
| 20260507083012 | 12 | 57 | 1.6 | 6.4 | 0.00 | 0.00 | 0.00 | 73 | 1022.6 |
| 20260507082504 | 12 | 99 | 1.6 | 4.8 | 0.00 | 0.00 | 0.00 | 73 | 1022.6 |
| 20260507082004 | 12 | 77 | 3.2 | 6.4 | 0.00 | 0.00 | 0.00 | 73 | 1022.6 |
| 20260507081504 | 12 | 64 | 1.6 | 8.0 | 0.00 | 0.00 | 0.00 | 73 | 1022.6 |
| 20260507081007 | 12 | 6 | 3.2 | 8.0 | 0.00 | 0.00 | 0.00 | 74 | 1022.6 |
| 20260507080505 | 12 | 75 | 3.2 | 8.0 | 0.00 | 0.00 | 0.00 | 74 | 1022.5 |
| 20260507080007 | 12 | 4 | 3.2 | 9.7 | 0.00 | 0.00 | 0.00 | 74 | 1022.5 |
| 20260507075505 | 12 | 70 | 4.8 | 9.7 | 0.00 | 0.00 | 0.00 | 74 | 1022.6 |
| 20260507075008 | 12 | 70 | 4.8 | 8.0 | 0.00 | 0.00 | 0.00 | 74 | 1022.6 |
| 20260507074506 | 12 | 44 | 3.2 | 6.4 | 0.00 | 0.00 | 0.00 | 74 | 1022.6 |
| 20260507074005 | 12 | 65 | 3.2 | 6.4 | 0.00 | 0.00 | 0.00 | 74 | 1022.6 |
| 20260507073505 | 12 | 55 | 1.6 | 6.4 | 0.00 | 0.00 | 0.00 | 74 | 1022.6 |
| 20260507073010 | 12 | 44 | 3.2 | 6.4 | 0.00 | 0.00 | 0.00 | 74 | 1022.6 |
| 20260507072504 | 12 | 75 | 0.0 | 8.0 | 0.00 | 0.00 | 0.00 | 74 | 1022.5 |
| 20260507072007 | 12 | 48 | 1.6 | 9.7 | 0.00 | 0.00 | 0.00 | 74 | 1022.5 |
| 20260507071516 | 12 | 39 | 4.8 | 9.7 | 0.00 | 0.00 | 0.00 | 74 | 1022.4 |
| 20260507071004 | 12 | 32 | 1.6 | 6.4 | 0.00 | 0.00 | 0.00 | 74 | 1022.4 |
| 20260507070504 | 12 | 73 | 3.2 | 8.0 | 0.00 | 0.00 | 0.00 | 74 | 1022.4 |
| 20260507070016 | 12 | 115 | 1.6 | 8.0 | 0.00 | 0.00 | 0.00 | 74 | 1022.4 |
| 20260507065503 | 12 | 52 | 1.6 | 6.4 | 0.00 | 0.00 | 0.00 | 75 | 1022.4 |
| 20260507065003 | 12 | 49 | 3.2 | 8.0 | 0.00 | 0.00 | 0.00 | 75 | 1022.4 |
| 20260507064507 | 12 | 66 | 3.2 | 9.7 | 0.00 | 0.00 | 0.00 | 75 | 1022.5 |
| 20260507064003 | 12 | 47 | 3.2 | 9.7 | 0.00 | 0.00 | 0.00 | 75 | 1022.5 |
| 20260507063503 | 12 | 126 | 3.2 | 11.3 | 0.00 | 0.00 | 0.00 | 75 | 1022.5 |
| 20260507063016 | 12 | 56 | 4.8 | 14.5 | 0.00 | 0.00 | 0.00 | 74 | 1022.5 |
| 20260507062507 | 12 | 50 | 4.8 | 14.5 | 0.00 | 0.00 | 0.00 | 74 | 1022.5 |
| 20260507062007 | 12 | 68 | 3.2 | 11.3 | 0.00 | 0.00 | 0.00 | 74 | 1022.6 |
| 20260507061514 | 12 | 45 | 4.8 | 11.3 | 0.00 | 0.00 | 0.00 | 74 | 1022.6 |
| 20260507061012 | 12 | 106 | 4.8 | 9.7 | 0.00 | 0.00 | 0.00 | 74 | 1022.6 |
| 20260507060506 | 12 | 77 | 0.0 | 9.7 | 0.00 | 0.00 | 0.00 | 74 | 1022.6 |
| 20260507060013 | 13 | 86 | 4.8 | 9.7 | 0.00 | 0.00 | 0.00 | 74 | 1022.5 |
| 20260507055508 | 13 | 52 | 3.2 | 12.9 | 0.00 | 0.00 | 0.00 | 74 | 1022.5 |
| 20260507055004 | 13 | 48 | 3.2 | 12.9 | 0.00 | 0.00 | 0.00 | 74 | 1022.5 |
| 20260507054504 | 13 | 99 | 4.8 | 12.9 | 0.00 | 0.00 | 0.00 | 74 | 1022.5 |
| 20260507054004 | 13 | 82 | 3.2 | 16.1 | 0.00 | 0.00 | 0.00 | 74 | 1022.5 |
| 20260507053504 | 13 | 46 | 3.2 | 16.1 | 0.00 | 0.00 | 0.00 | 74 | 1022.5 |
| 20260507053010 | 13 | 93 | 4.8 | 12.9 | 0.00 | 0.00 | 0.00 | 74 | 1022.5 |
| 20260507052504 | 13 | 66 | 6.4 | 20.9 | 0.00 | 0.00 | 0.00 | 74 | 1022.4 |
| 20260507052007 | 13 | 106 | 6.4 | 20.9 | 0.00 | 0.00 | 0.00 | 73 | 1022.4 |
| 20260507051514 | 13 | 86 | 3.2 | 17.7 | 0.00 | 0.00 | 0.00 | 73 | 1022.4 |
| 20260507051011 | 13 | 106 | 6.4 | 17.7 | 0.00 | 0.00 | 0.00 | 73 | 1022.4 |
| 20260507050511 | 13 | 81 | 4.8 | 19.3 | 0.00 | 0.00 | 0.00 | 73 | 1022.5 |
| 20260507050035 | 13 | 98 | 4.8 | 19.3 | 0.00 | 0.00 | 0.00 | 73 | 1022.4 |
| 20260507045508 | 13 | 110 | 8.0 | 17.7 | 0.00 | 0.00 | 0.00 | 72 | 1022.4 |
| 20260507045007 | 13 | 99 | 4.8 | 19.3 | 0.00 | 0.00 | 0.00 | 72 | 1022.4 |
| 20260507044522 | 13 | 179 | 6.4 | 19.3 | 0.00 | 0.00 | 0.00 | 72 | 1022.5 |
| 20260507044006 | 13 | 74 | 6.4 | 14.5 | 0.00 | 0.00 | 0.00 | 72 | 1022.5 |
| 20260507043506 | 13 | 77 | 3.2 | 17.7 | 0.00 | 0.00 | 0.00 | 72 | 1022.3 |
| 20260507043006 | 13 | 89 | 6.4 | 20.9 | 0.00 | 0.00 | 0.00 | 72 | 1022.3 |
| 20260507042503 | 13 | 65 | 8.0 | 20.9 | 0.00 | 0.00 | 0.00 | 71 | 1022.2 |
| 20260507042003 | 14 | 73 | 4.8 | 11.3 | 0.00 | 0.00 | 0.00 | 71 | 1022.2 |
| 20260507041512 | 14 | 94 | 3.2 | 11.3 | 0.00 | 0.00 | 0.00 | 71 | 1022.2 |
| 20260507041007 | 14 | 73 | 3.2 | 12.9 | 0.00 | 0.00 | 0.00 | 71 | 1022.2 |
| 20260507040507 | 14 | 103 | 4.8 | 16.1 | 0.00 | 0.00 | 0.00 | 71 | 1022.2 |
| 20260507040018 | 14 | 93 | 6.4 | 17.7 | 0.00 | 0.00 | 0.00 | 71 | 1022.1 |
| 20260507035508 | 14 | 82 | 6.4 | 17.7 | 0.00 | 0.00 | 0.00 | 71 | 1021.9 |
| 20260507035008 | 15 | 82 | 3.2 | 17.7 | 0.00 | 0.00 | 0.00 | 71 | 1021.9 |
| 20260507034519 | 15 | 84 | 6.4 | 14.5 | 0.00 | 0.00 | 0.00 | 71 | 1021.8 |
| 20260507034013 | 15 | 47 | 4.8 | 14.5 | 0.00 | 0.00 | 0.00 | 71 | 1021.7 |
| 20260507033507 | 15 | 72 | 6.4 | 19.3 | 0.00 | 0.00 | 0.00 | 71 | 1021.7 |
| 20260507033028 | 15 | 20 | 9.7 | 19.3 | 0.00 | 0.00 | 0.00 | 70 | 1021.6 |
| 20260507032507 | 15 | 59 | 4.8 | 14.5 | 0.00 | 0.00 | 0.00 | 71 | 1021.5 |
| 20260507032010 | 15 | 103 | 6.4 | 14.5 | 0.00 | 0.00 | 0.00 | 70 | 1021.4 |
| 20260507031528 | 15 | 120 | 4.8 | 11.3 | 0.00 | 0.00 | 0.00 | 70 | 1021.4 |
| 20260507031004 | 15 | 67 | 4.8 | 11.3 | 0.00 | 0.00 | 0.00 | 70 | 1021.3 |
| 20260507030507 | 15 | 118 | 4.8 | 12.9 | 0.00 | 0.00 | 0.00 | 70 | 1021.3 |
| 20260507030014 | 15 | 96 | 4.8 | 12.9 | 0.00 | 0.00 | 0.00 | 70 | 1021.2 |
| 20260507025508 | 15 | 101 | 8.0 | 16.1 | 0.00 | 0.00 | 0.00 | 70 | 1021.1 |
| 20260507025012 | 16 | 96 | 6.4 | 16.1 | 0.00 | 0.00 | 0.00 | 69 | 1021.1 |
| 20260507024518 | 16 | 44 | 3.2 | 11.3 | 0.00 | 0.00 | 0.00 | 69 | 1021.0 |
| 20260507024007 | 16 | 106 | 1.6 | 14.5 | 0.00 | 0.00 | 0.00 | 69 | 1020.9 |
| 20260507023509 | 16 | 91 | 4.8 | 14.5 | 0.00 | 0.00 | 0.00 | 69 | 1021.0 |
| 20260507023020 | 16 | 72 | 4.8 | 12.9 | 0.00 | 0.00 | 0.00 | 69 | 1020.9 |
| 20260507022510 | 16 | 45 | 3.2 | 12.9 | 0.00 | 0.00 | 0.00 | 69 | 1020.9 |
| 20260507022010 | 16 | 94 | 6.4 | 16.1 | 0.00 | 0.00 | 0.00 | 68 | 1020.9 |
| 20260507021533 | 16 | 56 | 6.4 | 16.1 | 0.00 | 0.00 | 0.00 | 68 | 1020.9 |
| 20260507021007 | 17 | 76 | 6.4 | 19.3 | 0.00 | 0.00 | 0.00 | 67 | 1020.9 |
| 20260507020509 | 17 | 22 | 8.0 | 19.3 | 0.00 | 0.00 | 0.00 | 66 | 1020.9 |
| 20260507020026 | 17 | 99 | 4.8 | 16.1 | 0.00 | 0.00 | 0.00 | 66 | 1020.9 |
| 20260507015507 | 17 | 75 | 4.8 | 16.1 | 0.00 | 0.00 | 0.00 | 66 | 1020.9 |
| 20260507015005 | 17 | 32 | 6.4 | 16.1 | 0.00 | 0.00 | 0.00 | 66 | 1020.9 |
| 20260507014520 | 17 | 72 | 8.0 | 16.1 | 0.00 | 0.00 | 0.00 | 66 | 1021.0 |
| 20260507014013 | 17 | 61 | 6.4 | 17.7 | 0.00 | 0.00 | 0.00 | 66 | 1021.0 |
| 20260507013505 | 17 | 48 | 9.7 | 17.7 | 0.00 | 0.00 | 0.00 | 65 | 1021.0 |
| 20260507013019 | 18 | 77 | 4.8 | 14.5 | 0.00 | 0.00 | 0.00 | 65 | 1020.9 |
| 20260507012509 | 18 | 58 | 6.4 | 14.5 | 0.00 | 0.00 | 0.00 | 66 | 1020.8 |
| 20260507012010 | 18 | 42 | 6.4 | 17.7 | 0.00 | 0.00 | 0.00 | 65 | 1020.9 |
| 20260507011530 | 18 | 75 | 9.7 | 17.7 | 0.00 | 0.00 | 0.00 | 65 | 1020.9 |
| 20260507011007 | 18 | 80 | 8.0 | 16.1 | 0.00 | 0.00 | 0.00 | 64 | 1020.9 |
| 20260507010513 | 18 | 106 | 8.0 | 17.7 | 0.00 | 0.00 | 0.00 | 64 | 1020.9 |
| 20260507010037 | 18 | 76 | 8.0 | 17.7 | 0.00 | 0.00 | 0.00 | 64 | 1020.9 |
| 20260507005507 | 18 | 75 | 6.4 | 16.1 | 0.00 | 0.00 | 0.00 | 64 | 1020.8 |
| 20260507005019 | 18 | 54 | 9.7 | 16.1 | 0.00 | 0.00 | 0.00 | 63 | 1020.8 |
| 20260507004524 | 19 | 53 | 6.4 | 19.3 | 0.00 | 0.00 | 0.00 | 64 | 1020.8 |
| 20260507004011 | 19 | 97 | 6.4 | 19.3 | 0.00 | 0.00 | 0.00 | 64 | 1020.7 |
| 20260507003511 | 20 | 56 | 6.4 | 14.5 | 0.00 | 0.00 | 0.00 | 63 | 1020.7 |
| 20260507003025 | 20 | 51 | 6.4 | 16.1 | 0.00 | 0.00 | 0.00 | 64 | 1020.7 |
| 20260507002509 | 20 | 58 | 4.8 | 16.1 | 0.00 | 0.00 | 0.00 | 63 | 1020.7 |
| 20260507002009 | 20 | 96 | 4.8 | 14.5 | 0.00 | 0.00 | 0.00 | 63 | 1020.6 |
| 20260507001520 | 20 | 31 | 3.2 | 19.3 | 0.00 | 0.00 | 0.00 | 62 | 1020.7 |
| 20260507001010 | 20 | 47 | 9.7 | 19.3 | 0.00 | 0.00 | 0.00 | 62 | 1020.7 |
| 20260507000517 | 20 | 58 | 4.8 | 12.9 | 0.00 | 0.00 | 0.00 | 61 | 1020.7 |
| 20260507000024 | 20 | 86 | 6.4 | 12.9 | 0.00 | 0.00 | 0.00 | 60 | 1020.7 |
| 20260506235503 | 20 | 29 | 3.2 | 12.9 | 0.00 | 0.00 | 0.00 | 60 | 1020.6 |
| 20260506235007 | 20 | 354 | 3.2 | 12.9 | 0.00 | 0.00 | 0.00 | 60 | 1020.6 |
| 20260506234507 | 21 | 56 | 1.6 | 8.0 | 0.00 | 0.00 | 0.00 | 59 | 1020.6 |
| 20260506234005 | 21 | 89 | 1.6 | 4.8 | 0.00 | 0.00 | 0.00 | 58 | 1020.6 |
| 20260506233507 | 22 | 90 | 1.6 | 4.8 | 0.00 | 0.00 | 0.00 | 57 | 1020.6 |
| 20260506233014 | 22 | 6 | 1.6 | 4.8 | 0.00 | 0.00 | 0.00 | 57 | 1020.6 |
| 20260506232505 | 21 | 22 | 1.6 | 6.4 | 0.00 | 0.00 | 0.00 | 58 | 1020.7 |
| 20260506232008 | 21 | 153 | 1.6 | 6.4 | 0.00 | 0.00 | 0.00 | 60 | 1020.7 |
| 20260506231522 | 21 | 94 | 3.2 | 6.4 | 0.00 | 0.00 | 0.00 | 58 | 1020.7 |
| 20260506231007 | 21 | 77 | 1.6 | 6.4 | 0.00 | 0.00 | 0.00 | 59 | 1020.8 |
| 20260506230507 | 21 | 222 | 3.2 | 6.4 | 0.00 | 0.00 | 0.00 | 59 | 1020.8 |
| 20260506230026 | 21 | 119 | 3.2 | 9.7 | 0.00 | 0.00 | 0.00 | 60 | 1020.8 |
| 20260506225515 | 20 | 91 | 3.2 | 9.7 | 0.00 | 0.00 | 0.00 | 61 | 1020.9 |
| 20260506225008 | 20 | 82 | 6.4 | 9.7 | 0.00 | 0.00 | 0.00 | 61 | 1020.9 |
| 20260506224506 | 20 | 323 | 3.2 | 8.0 | 0.00 | 0.00 | 0.00 | 60 | 1021.0 |
| 20260506224002 | 20 | 319 | 1.6 | 6.4 | 0.00 | 0.00 | 0.00 | 62 | 1021.1 |
| 20260506223503 | 19 | 223 | 1.6 | 6.4 | 0.00 | 0.00 | 0.00 | 63 | 1021.2 |
| 20260506223015 | 19 | 8 | 1.6 | 6.4 | 0.00 | 0.00 | 0.00 | 62 | 1021.3 |
| 20260506222504 | 20 | 300 | 0.0 | 4.8 | 0.00 | 0.00 | 0.00 | 62 | 1021.3 |
| 20260506222013 | 19 | 120 | 1.6 | 4.8 | 0.00 | 0.00 | 0.00 | 62 | 1021.3 |
| 20260506221516 | 20 | 93 | 3.2 | 4.8 | 0.00 | 0.00 | 0.00 | 62 | 1021.4 |
| 20260506221012 | 20 | 86 | 1.6 | 4.8 | 0.00 | 0.00 | 0.00 | 63 | 1021.4 |
| 20260506220505 | 20 | 232 | 0.0 | 4.8 | 0.00 | 0.00 | 0.00 | 64 | 1021.5 |
| 20260506220028 | 19 | 122 | 1.6 | 6.4 | 0.00 | 0.00 | 0.00 | 64 | 1021.4 |
| 20260506215506 | 19 | 207 | 1.6 | 6.4 | 0.00 | 0.00 | 0.00 | 64 | 1021.4 |
| 20260506215012 | 18 | 264 | 1.6 | 8.0 | 0.00 | 0.00 | 0.00 | 66 | 1021.3 |
| 20260506214525 | 19 | 250 | 3.2 | 8.0 | 0.00 | 0.00 | 0.00 | 66 | 1021.3 |
| 20260506214008 | 18 | 309 | 3.2 | 6.4 | 0.00 | 0.00 | 0.00 | 65 | 1021.3 |
| 20260506213510 | 18 | 83 | 1.6 | 8.0 | 0.00 | 0.00 | 0.00 | 66 | 1021.4 |
| 20260506213008 | 18 | 141 | 4.8 | 8.0 | 0.00 | 0.00 | 0.00 | 66 | 1021.5 |
| 20260506212503 | 18 | 103 | 3.2 | 6.4 | 0.00 | 0.00 | 0.00 | 67 | 1021.6 |
| 20260506212006 | 18 | 89 | 1.6 | 3.2 | 0.00 | 0.00 | 0.00 | 68 | 1021.6 |
| 20260506211511 | 18 | 319 | 1.6 | 6.4 | 0.00 | 0.00 | 0.00 | 68 | 1021.7 |
| 20260506211006 | 18 | 105 | 1.6 | 8.0 | 0.00 | 0.00 | 0.00 | 68 | 1021.8 |
| 20260506210509 | 18 | 65 | 1.6 | 8.0 | 0.00 | 0.00 | 0.00 | 68 | 1021.8 |
| 20260506210018 | 18 | 94 | 3.2 | 8.0 | 0.00 | 0.00 | 0.00 | 68 | 1021.8 |
| 20260506205508 | 18 | 128 | 1.6 | 4.8 | 0.00 | 0.00 | 0.00 | 67 | 1021.8 |
| 20260506205008 | 18 | 101 | 0.0 | 6.4 | 0.00 | 0.00 | 0.00 | 66 | 1021.8 |
| 20260506204528 | 18 | 257 | 3.2 | 6.4 | 0.00 | 0.00 | 0.00 | 67 | 1021.8 |
| 20260506204010 | 18 | 157 | 0.0 | 4.8 | 0.00 | 0.00 | 0.00 | 67 | 1021.8 |
| 20260506203518 | 18 | 220 | 0.0 | 11.3 | 0.00 | 0.00 | 0.00 | 67 | 1021.8 |
| 20260506203029 | 18 | 297 | 1.6 | 11.3 | 0.00 | 0.00 | 0.00 | 68 | 1021.7 |
| 20260506202507 | 18 | 228 | 1.6 | 6.4 | 0.00 | 0.00 | 0.00 | 68 | 1021.7 |
| 20260506202012 | 18 | 54 | 1.6 | 6.4 | 0.00 | 0.00 | 0.00 | 68 | 1021.7 |
| 20260506201532 | 18 | 211 | 0.0 | 6.4 | 0.00 | 0.00 | 0.00 | 69 | 1021.8 |
| 20260506201008 | 17 | 293 | 0.0 | 6.4 | 0.00 | 0.00 | 0.00 | 69 | 1021.8 |
| 20260506200508 | 17 | 262 | 0.0 | 6.4 | 0.00 | 0.00 | 0.00 | 69 | 1021.8 |
| 20260506200013 | 17 | 226 | 0.0 | 6.4 | 0.00 | 0.00 | 0.00 | 70 | 1021.9 |
| 20260506195507 | 17 | 310 | 1.6 | 6.4 | 0.00 | 0.00 | 0.00 | 70 | 1022.1 |
| 20260506195010 | 16 | 311 | 1.6 | 4.8 | 0.00 | 0.00 | 0.00 | 72 | 1022.2 |
| 20260506194518 | 16 | 290 | 0.0 | 6.4 | 0.00 | 0.00 | 0.00 | 72 | 1022.2 |
| 20260506194009 | 16 | 25 | 1.6 | 6.4 | 0.00 | 0.00 | 0.00 | 72 | 1022.2 |
| 20260506193509 | 16 | 340 | 0.0 | 6.4 | 0.00 | 0.00 | 0.00 | 72 | 1022.3 |
| 20260506193023 | 16 | 3 | 3.2 | 6.4 | 0.00 | 0.00 | 0.00 | 72 | 1022.4 |
| 20260506192509 | 16 | 294 | 1.6 | 6.4 | 0.00 | 0.00 | 0.00 | 72 | 1022.3 |
| 20260506192011 | 16 | 309 | 1.6 | 6.4 | 0.00 | 0.00 | 0.00 | 73 | 1022.1 |
| 20260506191527 | 16 | 288 | 0.0 | 6.4 | 0.00 | 0.00 | 0.00 | 73 | 1022.1 |
| 20260506191007 | 16 | 313 | 1.6 | 6.4 | 0.00 | 0.00 | 0.00 | 73 | 1022.1 |
| 20260506190509 | 16 | 300 | 1.6 | 4.8 | 0.00 | 0.00 | 0.00 | 73 | 1022.2 |
| 20260506190028 | 16 | 269 | 0.0 | 4.8 | 0.00 | 0.00 | 0.00 | 74 | 1022.2 |
| 20260506185509 | 16 | 321 | 1.6 | 4.8 | 0.00 | 0.00 | 0.00 | 73 | 1022.2 |
| 20260506185005 | 16 | 97 | 3.2 | 4.8 | 0.00 | 0.00 | 0.00 | 73 | 1022.0 |
| 20260506184516 | 16 | 91 | 1.6 | 4.8 | 0.00 | 0.00 | 0.00 | 75 | 1022.0 |
| 20260506184008 | 16 | 298 | 1.6 | 4.8 | 0.00 | 0.00 | 0.00 | 75 | 1022.1 |
| 20260506183508 | 16 | 340 | 3.2 | 4.8 | 0.00 | 0.00 | 0.00 | 75 | 1022.0 |
| 20260506183018 | 16 | 39 | 1.6 | 4.8 | 0.00 | 0.00 | 0.00 | 74 | 1022.1 |
| 20260506182508 | 15 | 245 | 0.0 | 0.0 | 0.00 | 0.00 | 0.00 | 76 | 1022.2 |
| 20260506182010 | 15 | 49 | 0.0 | 6.4 | 0.00 | 0.00 | 0.00 | 76 | 1022.2 |
| 20260506181526 | 15 | 341 | 1.6 | 9.7 | 0.00 | 0.00 | 0.00 | 77 | 1022.1 |
| 20260506181008 | 15 | 359 | 3.2 | 9.7 | 0.00 | 0.00 | 0.00 | 77 | 1022.1 |
| 20260506180510 | 15 | 34 | 1.6 | 6.4 | 0.00 | 0.00 | 0.00 | 77 | 1022.2 |
| 20260506180028 | 15 | 359 | 1.6 | 6.4 | 0.00 | 0.00 | 0.00 | 76 | 1022.2 |
| 20260506175509 | 15 | 311 | 0.0 | 0.0 | 0.00 | 0.00 | 0.00 | 76 | 1022.2 |
| 20260506175010 | 15 | 67 | 0.0 | 0.0 | 0.00 | 0.00 | 0.00 | 77 | 1022.1 |
| 20260506174528 | 15 | 336 | 0.0 | 0.0 | 0.00 | 0.00 | 0.00 | 76 | 1022.2 |
| 20260506174013 | 15 | 349 | 0.0 | 0.0 | 0.00 | 0.00 | 0.00 | 76 | 1022.1 |
| 20260506173510 | 15 | 222 | 0.0 | 0.0 | 0.00 | 0.00 | 0.00 | 77 | 1022.0 |
| 20260506173018 | 15 | 235 | 0.0 | 0.0 | 0.00 | 0.00 | 0.00 | 77 | 1021.9 |
| 20260506172506 | 15 | 229 | 0.0 | 3.2 | 0.00 | 0.00 | 0.00 | 77 | 1021.9 |
| 20260506172008 | 15 | 242 | 0.0 | 4.8 | 0.00 | 0.00 | 0.00 | 77 | 1021.8 |
| 20260506171534 | 15 | 27 | 1.6 | 4.8 | 0.00 | 0.00 | 0.00 | 77 | 1021.7 |
| 20260506171010 | 15 | 259 | 0.0 | 4.8 | 0.00 | 0.00 | 0.00 | 77 | 1021.8 |
| 20260506170510 | 15 | 328 | 3.2 | 8.0 | 0.00 | 0.00 | 0.00 | 76 | 1021.9 |
| 20260506170025 | 15 | 308 | 3.2 | 8.0 | 0.00 | 0.00 | 0.00 | 77 | 1021.9 |
| 20260506165508 | 14 | 30 | 0.0 | 4.8 | 0.00 | 0.00 | 0.00 | 77 | 1021.9 |
| 20260506165010 | 14 | 345 | 0.0 | 6.4 | 0.00 | 0.00 | 0.00 | 77 | 1021.8 |
| 20260506164526 | 14 | 34 | 3.2 | 6.4 | 0.00 | 0.00 | 0.00 | 77 | 1021.7 |
| 20260506164013 | 15 | 60 | 0.0 | 6.4 | 0.00 | 0.00 | 0.00 | 77 | 1021.7 |
| 20260506163513 | 15 | 57 | 3.2 | 6.4 | 0.00 | 0.00 | 0.00 | 77 | 1021.9 |
| 20260506163030 | 14 | 103 | 0.0 | 6.4 | 0.00 | 0.00 | 0.00 | 78 | 1021.7 |
| 20260506162508 | 14 | 59 | 4.8 | 6.4 | 0.00 | 0.00 | 0.00 | 77 | 1021.7 |
| 20260506162012 | 14 | 56 | 3.2 | 6.4 | 0.00 | 0.00 | 0.00 | 77 | 1021.6 |
| 20260506161537 | 14 | 82 | 0.0 | 4.8 | 0.00 | 0.00 | 0.00 | 78 | 1021.6 |
| 20260506161007 | 14 | 79 | 1.6 | 4.8 | 0.00 | 0.00 | 0.00 | 78 | 1021.7 |
| 20260506160513 | 13 | 125 | 0.0 | 6.4 | 0.00 | 0.00 | 0.00 | 78 | 1021.5 |
| 20260506160034 | 13 | 124 | 0.0 | 6.4 | 0.00 | 0.00 | 0.00 | 78 | 1021.4 |
| 20260506155510 | 13 | 72 | 0.0 | 8.0 | 0.00 | 0.00 | 0.00 | 78 | 1021.4 |
| 20260506155011 | 13 | 258 | 1.6 | 8.0 | 0.00 | 0.00 | 0.00 | 79 | 1021.1 |
| 20260506154530 | 13 | 302 | 0.0 | 4.8 | 0.00 | 0.00 | 0.00 | 80 | 1021.1 |
| 20260506154012 | 13 | 250 | 0.0 | 0.0 | 0.00 | 0.00 | 0.00 | 80 | 1021.1 |
| 20260506153514 | 13 | 59 | 0.0 | 4.8 | 0.00 | 0.00 | 0.00 | 80 | 1021.7 |
| 20260506153024 | 13 | 96 | 0.0 | 4.8 | 0.00 | 0.00 | 0.00 | 80 | 1021.9 |
| 20260506152508 | 13 | 49 | 1.6 | 8.0 | 0.00 | 0.00 | 0.00 | 80 | 1021.9 |
| 20260506152015 | 13 | 54 | 1.6 | 8.0 | 0.00 | 0.00 | 0.00 | 80 | 1022.0 |
| 20260506151534 | 13 | 103 | 3.2 | 9.7 | 0.00 | 0.00 | 0.00 | 80 | 1022.0 |
| 20260506151015 | 13 | 84 | 3.2 | 9.7 | 0.00 | 0.00 | 0.00 | 80 | 1021.9 |
| 20260506150516 | 13 | 101 | 3.2 | 9.7 | 0.00 | 0.00 | 0.00 | 80 | 1022.0 |
| 20260506150032 | 13 | 86 | 4.8 | 9.7 | 0.00 | 0.00 | 0.00 | 80 | 1021.9 |
| 20260506145504 | 13 | 99 | 1.6 | 6.4 | 0.00 | 0.00 | 0.00 | 80 | 1021.9 |
| 20260506145005 | 13 | 55 | 0.0 | 6.4 | 0.00 | 0.00 | 0.00 | 80 | 1021.6 |
| 20260506144506 | 13 | 46 | 1.6 | 9.7 | 0.00 | 0.00 | 0.00 | 80 | 1021.8 |
| 20260506144009 | 13 | 57 | 3.2 | 9.7 | 0.00 | 0.00 | 0.00 | 80 | 1021.7 |
| 20260506143505 | 13 | 97 | 4.8 | 9.7 | 0.00 | 0.00 | 0.00 | 80 | 1021.5 |
| 20260506143030 | 13 | 75 | 1.6 | 4.8 | 0.00 | 0.00 | 0.00 | 81 | 1021.4 |
| 20260506142503 | 13 | 96 | 3.2 | 4.8 | 0.00 | 0.00 | 0.00 | 81 | 1021.2 |
| 20260506142007 | 13 | 89 | 3.2 | 4.8 | 0.00 | 0.00 | 0.00 | 81 | 1021.1 |
| 20260506141510 | 13 | 115 | 0.0 | 3.2 | 0.00 | 0.00 | 0.00 | 81 | 1020.9 |
| 20260506141007 | 13 | 54 | 0.0 | 3.2 | 0.00 | 0.00 | 0.00 | 81 | 1021.0 |
| 20260506140505 | 13 | 102 | 0.0 | 3.2 | 0.00 | 0.00 | 0.00 | 81 | 1021.1 |
| 20260506140015 | 13 | 90 | 0.0 | 0.0 | 0.00 | 0.00 | 0.00 | 81 | 1021.1 |
| 20260506135507 | 13 | 78 | 0.0 | 0.0 | 0.00 | 0.00 | 0.00 | 81 | 1021.1 |
| 20260506135007 | 13 | 96 | 0.0 | 0.0 | 0.00 | 0.00 | 0.00 | 81 | 1020.9 |
| 20260506134520 | 13 | 96 | 0.0 | 0.0 | 0.00 | 0.00 | 0.00 | 81 | 1020.9 |
| 20260506134003 | 13 | 95 | 0.0 | 0.0 | 0.00 | 0.00 | 0.00 | 81 | 1020.8 |
| 20260506133503 | 13 | 95 | 0.0 | 0.0 | 0.00 | 0.00 | 0.00 | 81 | 1020.7 |
| 20260506133006 | 13 | 146 | 0.0 | 0.0 | 0.00 | 0.00 | 0.00 | 81 | 1020.7 |
| 20260506132504 | 13 | 146 | 0.0 | 0.0 | 0.00 | 0.00 | 0.00 | 81 | 1020.7 |
| 20260506132008 | 13 | 147 | 0.0 | 0.0 | 0.00 | 0.00 | 0.00 | 81 | 1020.6 |
| 20260506131514 | 13 | 146 | 0.0 | 0.0 | 0.00 | 0.00 | 0.00 | 81 | 1020.5 |
| 20260506131006 | 13 | 146 | 0.0 | 0.0 | 0.00 | 0.00 | 0.00 | 81 | 1020.5 |
| 20260506130505 | 13 | 146 | 0.0 | 0.0 | 0.00 | 0.00 | 0.00 | 81 | 1020.5 |
| 20260506130012 | 13 | 146 | 0.0 | 0.0 | 0.00 | 0.00 | 0.00 | 81 | 1020.5 |
| 20260506125504 | 13 | 146 | 0.0 | 0.0 | 0.00 | 0.00 | 0.00 | 81 | 1020.4 |
| 20260506125008 | 13 | 146 | 0.0 | 0.0 | 0.00 | 0.00 | 0.00 | 81 | 1020.3 |
| 20260506124516 | 13 | 148 | 0.0 | 0.0 | 0.00 | 0.00 | 0.00 | 81 | 1020.3 |
| 20260506124008 | 13 | 148 | 0.0 | 3.2 | 0.00 | 0.00 | 0.00 | 81 | 1020.3 |
| 20260506123507 | 13 | 105 | 0.0 | 3.2 | 0.00 | 0.00 | 0.00 | 81 | 1020.3 |
| 20260506123024 | 13 | 94 | 1.6 | 6.4 | 0.00 | 0.00 | 0.00 | 81 | 1020.4 |
| 20260506122508 | 13 | 99 | 1.6 | 6.4 | 0.00 | 0.00 | 0.00 | 81 | 1020.4 |
| 20260506122006 | 13 | 66 | 0.0 | 6.4 | 0.00 | 0.00 | 0.00 | 81 | 1020.4 |
| 20260506121507 | 13 | 103 | 0.0 | 4.8 | 0.00 | 0.00 | 0.00 | 81 | 1020.4 |
| 20260506121003 | 13 | 94 | 0.0 | 4.8 | 0.00 | 0.00 | 0.00 | 80 | 1020.4 |
| 20260506120505 | 13 | 89 | 0.0 | 4.8 | 0.00 | 0.00 | 0.00 | 80 | 1020.3 |
| 20260506120011 | 13 | 77 | 1.6 | 6.4 | 0.00 | 0.00 | 0.00 | 80 | 1020.4 |
| 20260506115508 | 13 | 95 | 1.6 | 6.4 | 0.00 | 0.00 | 0.00 | 80 | 1020.2 |
| 20260506115007 | 13 | 80 | 1.6 | 6.4 | 0.00 | 0.00 | 0.00 | 80 | 1020.2 |
| 20260506114520 | 13 | 96 | 1.6 | 8.0 | 0.00 | 0.00 | 0.00 | 80 | 1020.1 |
| 20260506114008 | 13 | 115 | 1.6 | 8.0 | 0.00 | 0.00 | 0.00 | 80 | 1020.0 |
| 20260506113509 | 13 | 76 | 1.6 | 6.4 | 0.00 | 0.00 | 0.00 | 80 | 1020.0 |
| 20260506113020 | 13 | 55 | 1.6 | 9.7 | 0.00 | 0.00 | 0.00 | 80 | 1020.0 |
| 20260506112508 | 13 | 143 | 1.6 | 9.7 | 0.00 | 0.00 | 0.00 | 79 | 1020.0 |
| 20260506112011 | 13 | 73 | 3.2 | 8.0 | 0.00 | 0.00 | 0.00 | 79 | 1020.0 |
| 20260506111522 | 13 | 91 | 4.8 | 8.0 | 0.00 | 0.00 | 0.00 | 79 | 1019.9 |
| 20260506111010 | 13 | 51 | 3.2 | 6.4 | 0.00 | 0.00 | 0.00 | 79 | 1019.8 |
| 20260506110515 | 13 | 86 | 0.0 | 4.8 | 0.00 | 0.00 | 0.00 | 79 | 1019.7 |